Starlink 33880

operational
NORAD ID: 63686 Int'l Des: 2025-085 Owner: SPXS Country: US Constellation: starlink
LEOCIRCULAR

About Starlink 33880

Description loading...

Live Position

Loading 3D Globe...

Upcoming Passes

Altitude History

Altitude vs Time

uPlot chart will show altitude changes over time

Two-Line Element Set

1 63686U 25085Y 26102.99140565 .00009515 00000-0 35469-3 0 9999
2 63686 43.0003 197.3931 0001177 231.2304 128.8442 15.27592679 54220
Epoch: Apr 12, 2026 • Age: 9 hours

Current Status

Altitude 494.0 km
Velocity 7.62 km/s
Sub-Earth Point -38.31°S, 162.38°E
Launch Date Apr 28, 2025
Age 0.9 years
Type internet

Technical Details

Classification Payload
Mass 575.00 kg
Dry Mass 530.00 kg
Total Mass 575.00 kg
Length 0.30 m
Diameter 4.10 m
Span 29.00 m
Shape Box + pan
Manufacturer SPXS
Bus Type Starlink V2MO
Phase Status In Orbit
Owner/State SPXS/US

Large Constellations

Loading constellations...